Find Local Weather

World > North America > United States > Ohio

Delphos, Ohio Regional Weather

Lat: 40.84N, Lon: 84.34W
Wx Zone: OHZ024
Warning FLW WEATHER ALERT - (More Info. Click Here) Warning
Feedback
Expires:201808170700;;186749
ASUS41 KCLE 170602
RWRCLE
OHIO REGIONAL WEATHER ROUNDUP
NATIONAL WEATHER SERVICE CLEVELAND, OH
200 AM EDT FRI AUG 17 2018

NOTE: "FAIR" INDICATES FEW OR NO CLOUDS BELOW 12,000 FEET WITH NO
SIGNIFICANT WEATHER AND/OR OBSTRUCTIONS TO VISIBILITY.


OHZ001>008-015>018-024>027-034-035-043-044-170700-
   NORTHWEST OHIO
  
CITY           SKY/WX    TMP DP  RH WIND       PRES   REMARKS
DEFIANCE       FAIR      70  70 100 CALM      29.95F                  
FINDLAY        CLOUDY    74  72  93 S8G18     29.96S                  
TOLEDO EXPRESS CLOUDY    74  71  91 SW5       29.95S                  
TOLEDO EXEC    CLOUDY    73  72  96 CALM      29.96S FOG              
LIMA           CLOUDY    72  72 100 S6        29.99R                  
$$


SKY/WX - Weather  TMP - Temperature  DP - Dewpoint  RH - Relative Humidity
WIND - Wind Direction/Speed PRES - Barometric Pressure